Location: Edinburgh
(55.9500°N, 3.1600°W)
Time: 15:42:03
(UTC+01:00)

N. Korean satellite - Pass Details

Date: 07 October 2017
Orbit: 459 x 517 km, 97.2° (Epoch: 18 October)

Event Time Altitude Azimuth Distance (km) Brightness Sun altitude
Rises 19:19:02 0° 176° (S) 2,572 10.2 -7.4°
Reaches altitude 10° 19:21:09 10° 181° (S) 1,684 9.3 -7.7°
Maximum altitude 19:24:42 53° 259° (W) 608 7.5 -8.2°
Drops below altitude 10° 19:28:13 10° 338° (NNW) 1,666 9.6 -8.7°
Sets 19:30:18 0° 343° (NNW) 2,540 10.5 -9.0°
